Location: Austin
(30.3000°N, 97.7500°W)
Time: 23:04:45
(UTC-05:00)

USA 81 - Pass Details

Date: 08 April 2026
Orbit: 783 x 785 km, 85.0° (Epoch: 20 April)

Event Time Altitude Azimuth Distance (km) Brightness Sun altitude
Rises 20:08:17 0° 185° (S) 3,257 7.2 -3.8°
Reaches altitude 10° 20:10:38 10° 187° (S) 2,332 6.5 -4.3°
Maximum altitude 20:15:52 77° 273° (W) 807 4.3 -5.4°
Drops below altitude 10° 20:21:08 10° 360° (N) 2,343 6.7 -6.5°
Sets 20:23:30 0° 2° (N) 3,274 7.4 -7.0°
